Location: St. Louis
(38.6270°N, 90.1994°W)
Time: 13:43:44
(UTC-06:00)

CAS-4A - Visible Passes

Search period start: 21 January 2022 00:00
Search period end: 31 January 2022 00:00
Orbit: 529 x 538 km, 43.0° (Epoch: 21 January)

Date Brightness Start Highest point End Pass type
(mag) Time Alt. Az. Time Alt. Az. Time Alt. Az.
21 Jan ? 04:35:39 20° SE 04:35:39 20° SE 04:36:58 10° ESE visible
21 Jan ? 06:10:57 12° WSW 06:12:31 14° SW 06:14:43 10° S visible
22 Jan ? 04:25:12 12° SE 04:25:12 12° SE 04:25:34 10° SE visible
22 Jan ? 06:00:30 11° SW 06:01:05 11° SW 06:02:12 10° SSW visible
27 Jan ? 18:51:20 10° SSE 18:52:24 12° SSE 18:52:24 12° SSE visible
28 Jan ? 18:39:10 10° S 18:41:46 17° SE 18:42:03 16° SE visible
28 Jan ? 20:17:20 10° WSW 20:17:21 10° WSW 20:17:21 10° WSW visible
29 Jan ? 18:27:14 10° SSW 18:30:19 21° SE 18:31:37 18° ESE visible
29 Jan ? 20:05:59 10° WSW 20:06:55 17° WSW 20:06:55 17° WSW visible
30 Jan ? 18:15:28 10° SSW 18:18:52 26° SE 18:21:07 16° E visible
30 Jan ? 19:54:37 10° WSW 19:56:25 25° WSW 19:56:25 25° WSW visible
